Content
SEND FEEDBACK

Daily
Averages
Monthly
Summary
United States of America

WAHWEAP, ARIZONA


Home > North America > United States > Arizona
Elevation: 3703 feet     Latitude: 36 59N     Longitude: 111 29W

WEATHER
 
SELECT A DAY
Number of Records: 194,999;   Date Range: 1/1/95 - 9/22/14
 
SHARE

PRINT THIS DATA

[ ← Previous Day ]
WEATHER ALMANAC - APRIL 10, 2013
[ Next Day → ]
[ °C ]   °F
Weather ElementAverageHighLow
Temperature46.8 °F55.9 °F (2:53 pm)37 °F (4:53 am)
Dewpoint19.8 °F24.1 °F (11:53 pm)16 °F (1:53 pm)
Humidity36.1 %57 % (4:53 am)22 % (1:53 pm)
Barometer29.99 in30.12 in (9:53 am)29.91 in (4:53 pm)
Wind Speed5 mph11.5 mph (3:53 pm)
Weather ElementAverage
Visibility9.8 mi
Wind DirectionESE (112.6 °)

Weather ElementTotal
Precipitation---
Heating Degree Days18.6 (Base 65)
Averaged from 23 records on April 10, 2013
WEATHER CONDITIONS BREAKOUT
WIND DIRECTION BREAKOUT
WEATHER BY HOUR - APRIL 10, 2013
[ °C ]   °F
Local TimeTemperatureDewpointHumidityBarometerVisibilityWind DirectionWind SpeedGust SpeedPrecipitationEventsConditions
1:53 AM41.0 °F23.0 °F49 %29.96 in10.0 miNorth (350°)9.2 mphOvercast
2:53 AM39.0 °F23.0 °F53 %29.97 in10.0 miNNW (340°)4.6 mphClear
3:53 AM37.9 °F21.9 °F53 %29.98 in10.0 miNNW (330°)4.6 mphClear
4:53 AM37.0 °F23.0 °F57 %30.01 in10.0 miNorth (360°)6.9 mphPartly Cloudy
5:53 AM37.0 °F23.0 °F57 %30.03 in10.0 miNorth (360°)5.8 mphClear
6:53 AM37.9 °F21.0 °F51 %30.06 in10.0 miNNE (20°)4.6 mphClear
7:53 AM39.9 °F18.0 °F41 %30.07 in10.0 miNorth (350°)6.9 mphClear
8:53 AM41.0 °F17.1 °F38 %30.10 in10.0 miVariable3.5 mphClear
9:53 AM41.0 °F17.6 °F39 %30.12 in10.0 miCalmClear
10:53 AM46.4 °F17.6 °F32 %30.12 in10.0 miENE (70°)5.8 mphClear
11:53 AM48.0 °F17.1 °F29 %30.06 in10.0 miEast (100°)6.9 mphClear
12:53 PM52.0 °F17.1 °F25 %30.01 in10.0 miNE (50°)5.8 mphClear
1:53 PM54.0 °F16.0 °F22 %29.98 in10.0 miNE (50°)8.1 mphClear
2:53 PM55.9 °F17.1 °F22 %29.95 in10.0 miEast (80°)8.1 mphClear
3:53 PM55.9 °F17.1 °F22 %29.93 in10.0 miNE (50°)11.5 mphClear
4:53 PM55.9 °F17.1 °F22 %29.91 in10.0 miNE (40°)8.1 mphClear
5:53 PM55.0 °F18.0 °F23 %29.92 in10.0 miNNE (20°)8.1 mphClear
6:53 PM53.1 °F19.0 °F26 %29.93 in10.0 miNNE (20°)5.8 mphClear
7:53 PM51.1 °F21.9 °F32 %29.94 in6.0 miCalmHaze
8:53 PM50.0 °F21.0 °F32 %29.96 in10.0 miCalmClear
9:53 PM48.9 °F21.9 °F35 %29.98 in10.0 miCalmClear
10:53 PM50.0 °F21.9 °F33 %29.95 in10.0 miCalmClear
11:53 PM48.9 °F24.1 °F38 %29.94 in10.0 miCalmClear
Hourly data recorded from KPGA, located miles away from Wahweap, Arizona







STORIES FROM OUR PARTNERS